When you browse on this site, cookies collect data to enhance your experience and personalize the content and advertising you see.
Visit our Privacy Policy to learn more. By continuing to use the site, you agree to this use of cookies and data.
  • în România
  • Lista ţărilor
  • Pe 7 zile
  • Temperatura apei
  • Hartă satelitară
  • Meteo pe hartă
  • Widget-uri
  • user-avatar
    Intrare

    Meteo pe oră la Lipsk

    Astăzi, 25 Mai, Sâmbătă

    Timp Temperatura Precipitaţii Vânt Presiune Umiditate
    00:00 +13°C° 0 mm 2 m/s 749 mmHg 85%
    01:00 +13°C° 0 mm 2 m/s 749 mmHg 87%
    02:00 +13°C° 0.2 mm 2 m/s 749 mmHg 90%
    03:00 +12°C° 0.2 mm 2 m/s 749 mmHg 92%
    04:00 +12°C° 0.2 mm 2 m/s 750 mmHg 95%
    05:00 +12°C° 0 mm 2 m/s 750 mmHg 92%
    06:00 +13°C° 0 mm 2 m/s 750 mmHg 90%
    07:00 +14°C° 0 mm 2 m/s 750 mmHg 86%
    08:00 +15°C° 0 mm 2 m/s 750 mmHg 82%
    09:00 +16°C° 0 mm 3 m/s 750 mmHg 78%
    10:00 +17°C° 0 mm 3 m/s 751 mmHg 73%
    11:00 +17°C° 0 mm 3 m/s 751 mmHg 73%
    12:00 +17°C° 0 mm 3 m/s 751 mmHg 73%
    13:00 +17°C° 0 mm 2 m/s 751 mmHg 72%
    14:00 +18°C° 0 mm 3 m/s 751 mmHg 72%
    15:00 +18°C° 0 mm 3 m/s 751 mmHg 71%
    16:00 +18°C° 0 mm 3 m/s 751 mmHg 70%
    17:00 +17°C° 0 mm 3 m/s 751 mmHg 74%
    18:00 +16°C° 0 mm 3 m/s 751 mmHg 78%
    19:00 +14°C° 0 mm 3 m/s 751 mmHg 82%
    20:00 +13°C° 0 mm 2 m/s 751 mmHg 85%
    21:00 +12°C° 0 mm 2 m/s 751 mmHg 88%
    22:00 +10°C° 0 mm 1 m/s 752 mmHg 91%
    23:00 +10°C° 0 mm 1 m/s 752 mmHg 90%

    Mâine, 26 Mai, Duminică

    Timp Temperatura Precipitaţii Vânt Presiune Umiditate
    00:00 +10°C° 0 mm 1 m/s 752 mmHg 88%
    01:00 +9°C° 0 mm 0 m/s 752 mmHg 86%
    02:00 +10°C° 0 mm 1 m/s 752 mmHg 88%
    03:00 +9°C° 0 mm 1 m/s 751 mmHg 90%
    04:00 +9°C° 0 mm 1 m/s 751 mmHg 93%
    05:00 +9°C° 0 mm 2 m/s 751 mmHg 90%
    06:00 +10°C° 0 mm 2 m/s 751 mmHg 88%
    07:00 +12°C° 0 mm 3 m/s 751 mmHg 86%
    08:00 +14°C° 0 mm 3 m/s 750 mmHg 79%
    09:00 +17°C° 0 mm 4 m/s 750 mmHg 72%
    10:00 +19°C° 0 mm 4 m/s 750 mmHg 65%
    11:00 +20°C° 0 mm 4 m/s 750 mmHg 63%
    12:00 +21°C° 0 mm 5 m/s 749 mmHg 60%
    13:00 +21°C° 0 mm 5 m/s 749 mmHg 58%
    14:00 +22°C° 0 mm 5 m/s 749 mmHg 59%
    15:00 +22°C° 0 mm 5 m/s 748 mmHg 60%
    16:00 +22°C° 0 mm 5 m/s 748 mmHg 61%
    17:00 +21°C° 0 mm 4 m/s 748 mmHg 65%
    18:00 +20°C° 0 mm 3 m/s 748 mmHg 70%
    19:00 +19°C° 0 mm 2 m/s 747 mmHg 74%
    20:00 +18°C° 0 mm 2 m/s 747 mmHg 75%
    21:00 +17°C° 0 mm 3 m/s 747 mmHg 76%
    22:00 +16°C° 0 mm 3 m/s 747 mmHg 77%
    23:00 +14°C° 0 mm 3 m/s 747 mmHg 78%

    Poimâine, 27 Mai, Luni

    Timp Temperatura Precipitaţii Vânt Presiune Umiditate
    00:00 +14°C° 0 mm 4 m/s 747 mmHg 78%
    01:00 +13°C° 0 mm 4 m/s 747 mmHg 79%
    02:00 +13°C° 0 mm 4 m/s 747 mmHg 81%
    03:00 +13°C° 0 mm 4 m/s 747 mmHg 84%
    04:00 +13°C° 0 mm 4 m/s 746 mmHg 86%
    05:00 +14°C° 0 mm 4 m/s 746 mmHg 85%
    06:00 +15°C° 0 mm 5 m/s 746 mmHg 84%
    07:00 +16°C° 0 mm 6 m/s 746 mmHg 83%
    08:00 +16°C° 0.1 mm 5 m/s 746 mmHg 84%
    09:00 +16°C° 0.1 mm 5 m/s 746 mmHg 84%
    10:00 +18°C° 0.1 mm 4 m/s 747 mmHg 84%
    11:00 +18°C° 0.2 mm 4 m/s 747 mmHg 82%
    12:00 +19°C° 0.2 mm 3 m/s 747 mmHg 79%
    13:00 +19°C° 0.2 mm 3 m/s 747 mmHg 77%
    14:00 +20°C° 0.1 mm 3 m/s 746 mmHg 75%
    15:00 +20°C° 0.1 mm 2 m/s 746 mmHg 73%
    16:00 +20°C° 0.1 mm 2 m/s 746 mmHg 71%
    17:00 +19°C° 0.4 mm 2 m/s 746 mmHg 75%
    18:00 +20°C° 0.4 mm 1 m/s 746 mmHg 80%
    19:00 +19°C° 0.4 mm 1 m/s 746 mmHg 84%
    20:00 +18°C° 0.1 mm 1 m/s 746 mmHg 85%
    21:00 +16°C° 0.1 mm 1 m/s 746 mmHg 86%
    22:00 +16°C° 0.1 mm 1 m/s 746 mmHg 87%
    23:00 +15°C° 0 mm 2 m/s 746 mmHg 88%

    28 Mai, Marţi

    Timp Temperatura Precipitaţii Vânt Presiune Umiditate
    00:00 +15°C° 0 mm 2 m/s 745 mmHg 89%
    01:00 +14°C° 0 mm 2 m/s 745 mmHg 90%
    02:00 +14°C° 0.1 mm 2 m/s 745 mmHg 90%
    03:00 +13°C° 0.1 mm 2 m/s 744 mmHg 91%
    04:00 +12°C° 0.1 mm 3 m/s 744 mmHg 91%
    05:00 +12°C° 0.3 mm 3 m/s 744 mmHg 92%
    06:00 +12°C° 0.3 mm 3 m/s 744 mmHg 92%
    07:00 +12°C° 0.3 mm 3 m/s 744 mmHg 93%
    08:00 +13°C° 0.2 mm 2 m/s 744 mmHg 90%
    09:00 +14°C° 0.2 mm 2 m/s 744 mmHg 87%
    10:00 +15°C° 0.2 mm 2 m/s 744 mmHg 84%
    11:00 +16°C° 0.2 mm 2 m/s 744 mmHg 78%
    12:00 +17°C° 0.2 mm 2 m/s 744 mmHg 73%
    13:00 +19°C° 0.2 mm 1 m/s 744 mmHg 67%
    14:00 +19°C° 0.6 mm 1 m/s 744 mmHg 70%
    15:00 +17°C° 0.6 mm 2 m/s 744 mmHg 74%
    16:00 +16°C° 0.6 mm 2 m/s 744 mmHg 78%
    17:00 +16°C° 0.4 mm 2 m/s 744 mmHg 82%
    18:00 +15°C° 0.4 mm 2 m/s 744 mmHg 85%
    19:00 +15°C° 0.4 mm 2 m/s 744 mmHg 89%
    20:00 +14°C° 0.1 mm 2 m/s 744 mmHg 89%
    21:00 +14°C° 0.1 mm 2 m/s 744 mmHg 89%
    22:00 +13°C° 0.1 mm 2 m/s 745 mmHg 89%
    23:00 +11°C° 0 mm 3 m/s 745 mmHg 91%

    29 Mai, Miercuri

    Timp Temperatura Precipitaţii Vânt Presiune Umiditate
    00:00 +10°C° 0 mm 3 m/s 745 mmHg 93%
    01:00 +10°C° 0 mm 3 m/s 745 mmHg 94%
    02:00 +9°C° 0 mm 3 m/s 745 mmHg 94%
    03:00 +9°C° 0 mm 3 m/s 745 mmHg 94%
    04:00 +9°C° 0 mm 3 m/s 746 mmHg 94%
    05:00 +9°C° 0 mm 3 m/s 746 mmHg 92%
    06:00 +10°C° 0 mm 4 m/s 747 mmHg 90%
    07:00 +11°C° 0 mm 4 m/s 747 mmHg 88%
    08:00 +12°C° 0.1 mm 4 m/s 748 mmHg 86%
    09:00 +12°C° 0.1 mm 5 m/s 748 mmHg 84%
    10:00 +12°C° 0.1 mm 5 m/s 748 mmHg 82%
    11:00 +13°C° 0.2 mm 5 m/s 749 mmHg 79%
    12:00 +14°C° 0.2 mm 5 m/s 749 mmHg 75%
    13:00 +15°C° 0.2 mm 5 m/s 749 mmHg 71%
    14:00 +15°C° 0.1 mm 5 m/s 750 mmHg 70%
    15:00 +15°C° 0.1 mm 5 m/s 750 mmHg 68%
    16:00 +16°C° 0.1 mm 5 m/s 750 mmHg 66%
    17:00 +15°C° 0.1 mm 4 m/s 750 mmHg 71%
    18:00 +14°C° 0.1 mm 3 m/s 751 mmHg 76%
    19:00 +13°C° 0.1 mm 3 m/s 751 mmHg 80%
    20:00 +13°C° 0 mm 2 m/s 752 mmHg 83%
    21:00 +11°C° 0 mm 1 m/s 752 mmHg 86%
    22:00 +10°C° 0 mm 1 m/s 753 mmHg 89%
    23:00 +10°C° 0 mm 1 m/s 753 mmHg 90%

    30 Mai, Joi

    Timp Temperatura Precipitaţii Vânt Presiune Umiditate
    00:00 +9°C° 0 mm 1 m/s 754 mmHg 90%
    01:00 +9°C° 0 mm 1 m/s 754 mmHg 91%
    02:00 +8°C° 0 mm 1 m/s 754 mmHg 92%
    03:00 +8°C° 0 mm 1 m/s 754 mmHg 92%
    04:00 +8°C° 0 mm 1 m/s 754 mmHg 93%
    05:00 +9°C° 0 mm 1 m/s 755 mmHg 90%
    06:00 +11°C° 0 mm 1 m/s 755 mmHg 86%
    07:00 +12°C° 0 mm 2 m/s 755 mmHg 83%
    08:00 +14°C° 0.1 mm 2 m/s 755 mmHg 77%
    09:00 +14°C° 0.1 mm 3 m/s 755 mmHg 72%
    10:00 +17°C° 0.1 mm 3 m/s 755 mmHg 66%
    11:00 +17°C° 0.1 mm 4 m/s 755 mmHg 62%
    12:00 +18°C° 0.1 mm 4 m/s 754 mmHg 58%
    13:00 +19°C° 0.1 mm 5 m/s 754 mmHg 55%
    14:00 +19°C° 0 mm 5 m/s 754 mmHg 56%
    15:00 +19°C° 0 mm 4 m/s 754 mmHg 57%
    16:00 +19°C° 0 mm 4 m/s 754 mmHg 58%
    17:00 +18°C° 0.1 mm 4 m/s 754 mmHg 66%
    18:00 +17°C° 0.1 mm 3 m/s 754 mmHg 74%
    19:00 +14°C° 0.1 mm 3 m/s 754 mmHg 83%
    20:00 +14°C° 0.2 mm 3 m/s 754 mmHg 85%
    21:00 +13°C° 0.2 mm 4 m/s 754 mmHg 88%
    22:00 +13°C° 0.2 mm 4 m/s 754 mmHg 91%
    23:00 +13°C° 0 mm 5 m/s 753 mmHg 92%
    Arată mai mult